Location: Caltech
(34.1382°N, 118.1253°W)
Time: 14:07:39
(UTC-07:00)

Cosmos 2333 Rocket - Visible Passes

Search period start: 27 July 2016 00:00
Search period end: 06 August 2016 00:00
Orbit: 838 x 864 km, 70.8° (Epoch: 26 July)

Date Brightness Start Highest point End Pass type
(mag) Time Alt. Az. Time Alt. Az. Time Alt. Az.
27 Jul 5.2 05:32:55 10° ESE 05:34:37 11° E 05:36:20 10° E visible
28 Jul 5.2 05:20:40 10° ESE 05:22:23 11° E 05:24:06 10° E visible
29 Jul 5.1 05:08:25 10° ESE 05:10:08 11° E 05:11:52 10° E visible
30 Jul 5.1 04:56:10 10° ESE 04:57:54 11° E 04:59:38 10° E visible
31 Jul 5.0 04:43:55 10° ESE 04:45:39 11° E 04:47:24 10° E visible
01 Aug 5.0 04:31:40 10° ESE 04:33:25 11° E 04:35:10 10° E visible
02 Aug 4.9 04:19:25 10° ESE 04:21:10 11° E 04:22:56 10° E visible
03 Aug 4.9 04:07:10 10° ESE 04:08:56 11° E 04:10:42 10° ENE visible
04 Aug 4.9 03:54:54 10° ESE 03:56:41 11° E 03:58:28 10° ENE visible
04 Aug 2.3 05:34:28 10° SSW 05:40:09 75° WNW 05:45:55 10° NNE visible
05 Aug 4.8 03:42:39 10° ESE 03:44:26 11° E 03:46:13 10° ENE visible
05 Aug 2.2 05:22:14 10° SSW 05:27:55 75° WNW 05:33:41 10° NNE visible
